Location: LDNL
(36.4545°S, 141.6685°E)
Time: 22:03:25
(UTC+11:00)

ISS - Pass Details

Date: 17 December 2021
Orbit: 413 x 422 km, 51.6° (Epoch: 22 January)

Event Time Altitude Azimuth Distance (km) Brightness Sun altitude
Rises 21:32:56 0° 283° (WNW) 2,365 0.7 -8.2°
Reaches altitude 10° 21:35:17 10° 268° (W) 1,505 0.0 -8.6°
Maximum altitude 21:38:07 24° 211° (SSW) 915 -1.1 -9.0°
Drops below altitude 10° 21:40:58 10° 154° (SSE) 1,514 -0.8 -9.5°
Sets 21:43:21 0° 140° (SE) 2,383 0.1 -9.9°
